{"data":{"norad_id":48317,"intl_designator":"2021-036AT","name":"STARLINK-2513","alt_names":[],"object_type":"PAYLOAD","status":"ACTIVE","operator":null,"country":"US","launch_date":"2021-04-29","launch_site_code":"AFETR","launch_vehicle":null,"mission":null,"orbit_class":"UNKNOWN","rcs_meters":null,"size_class":null,"mass_kg":null,"dimensions":null,"purposes":["comms"],"wikipedia_slug":null,"has_3d_model":false,"image_url":null,"decayed_at":null,"tle_current":{"epoch":"2026-09-19T17:41:43.755072Z","epoch_age_seconds":99633,"freshness":"FRESH","line1":"1 48317U 21036AT  26262.73731198  .00000364  00000+0  23510-4 0  9999","line2":"2 48317  53.1593 265.1141 0001145  89.4244 270.6889 15.31697179297954","mean_motion":15.31697179,"eccentricity":0.0001145,"inclination_deg":53.1593,"raan_deg":265.1141,"arg_perigee_deg":89.4244,"mean_anomaly_deg":270.6889,"bstar":2.351e-5,"rev_number":29795,"period_min":94.013361109677,"perigee_km":469.96420711395,"apogee_km":471.53260187158,"semimajor_km":6848.8854044928,"source":"CELESTRAK","updated_at":"2026-09-20T09:00:38.935144Z"}}}